User: anonymous
Location: Caltech
(34.1382°N, 118.1253°W)
Time: 10:11:38
(UTC-07:00)
Language:

Cosmos 1943 Rocket - Orbit

View from above orbital plane
View from above orbital plane
View from above satellite
View from above satellite

Ground track
Ground track

The orbit data is extracted from the following two-line orbital elements,

1 19120U 88039B   14211.11147316 -.00000205  00000-0 -74885-4 0  1115
2 19120 071.0161 029.8196 0022225 357.0324 144.0354 14.19038677356992
Epoch (UTC): 30 July 2014 02:40:31
Eccentricity: 0.0022225
inclination: 71.0161°
perigee height: 812 km
apogee height: 844 km
right ascension of ascending node: 29.8196°
argument of perigee: 357.0324°
revolutions per day: 14.19038677
mean anomaly at epoch: 144.0354°
orbit number at epoch: 35699

The dashed part of the orbit path shows where the satellite is in the earth's shadow,  

DLR